sat.trackr.live / text

‹ back to catalog

STARLINK-2646

NORAD 48642 · 2021-044E

PAYLOAD ACTIVE UNKNOWN

§ Identity

Operator
Country
US
Launch date
2021-05-26
Launch site
AFETR
Launch vehicle
Mass (kg)
RCS (m²)

Purposes: comms

External: N2YO · Heavens-Above · Gunter

§ Orbital elements

Epoch: 2026-05-25T04:27:38.695392Z

Period
94.01 min
Inclination
53.1591°
Eccentricity
0.0001334
Mean motion
15.31696150 rev/d
Perigee alt
469.8 km
Apogee alt
471.7 km
Semi-major
6,848.9 km
B*
8.4099e-6
RAAN
118.1490°
Arg perigee
85.2193°
Mean anomaly
274.8961°
Rev number
27,554

§ Raw data

STARLINK-26461 48642U 21044E   26145.18586453 -.00000104  00000+0  84099-5 0  99932 48642  53.1591 118.1490 0001334  85.2193 274.8961 15.31696150275540

JSON: /api/v1/satellites/48642 · /tle

For live sub-satellite position, see the globe view (requires WebGL).

§ Visibility from observer

Set your observer location to see the next 7 days of passes ≥ 10°. The values pass through the URL so the page stays shareable.

No JS? Fill the form by hand. The geolocation button needs JavaScript.